Regional Weather Roundup
Issued by NWS

Home | Current Version | Previous Version | Graphics & Text | Print | Product List | Glossary On
Versions: 1 2 3 4 5 6 7 8 9 10 11 12 13 14 15 16 17 18 19 20 21 22 23 24 25 26 27 28 29 30 31 32 33 34 35 36 37 38 39 40 41 42 43 44 45 46 47 48 49 50
000
ASUS43 KOAX 281410
RWRNE

WEATHER ROUNDUP FOR NEBRASKA
NATIONAL WEATHER SERVICE OMAHA NE
900 AM CDT SAT MAR 28 2015

NOTES: SATELLITE DATA IS BEING USED TO AUGMENT CLOUD COVER ABOVE
       12000 FEET.
       "FAIR" INDICATES FEW OR NO CLOUDS BELOW 12,000 FEET WITH NO
       SIGNIFICANT WEATHER AND/OR OBSTRUCTIONS TO VISIBILITY.

  * THESE STATIONS DO NOT REPORT WEATHER SUCH AS RAIN...SNOW OR FOG.

NEZ001>004-019>022-054>056-281500-
NEBRASKA PANHANDLE

CITY           SKY/WX    TMP DP  RH WIND       PRES   REMARKS
SCOTTSBLUFF    MOSUNNY   39  30  70 W3        30.00S
ALLIANCE       SUNNY     39  33  79 W6        29.98S WCI  35
CHADRON        SUNNY     37  32  82 W3        29.96S
KIMBALL        SUNNY     47  29  49 W9        30.02S
SIDNEY         SUNNY     47  30  51 NW10      30.01S
$$

NEZ057>060-069>072-079>082-281500-
SOUTHWEST NEBRASKA

CITY           SKY/WX    TMP DP  RH WIND       PRES   REMARKS
NORTH PLATTE   SUNNY     36  33  89 CALM      30.01R
IMPERIAL         N/A     42  31  64 W6        30.01S
LEXINGTON      SUNNY     35  31  84 NE5       30.03R WCI  31
MCCOOK         SUNNY     39  33  79 CALM      30.02R
OGALLALA       SUNNY     38  33  81 W6        30.00S WCI  33
$$

NEZ005>010-023>029-035>040-094-281500-
NORTH CENTRAL NEBRASKA

CITY           SKY/WX    TMP DP  RH WIND       PRES   REMARKS
VALENTINE      SUNNY     35  31  85 SW3       30.00S
AINSWORTH      SUNNY     40  35  80 SE5       30.01R
BROKEN BOW     SUNNY     34  30  85 SE5       30.02R WCI  30
O`NEILL        SUNNY     33  29  86 SE9       30.04S WCI  25
ORD            SUNNY     31  24  75 SE7       30.04R WCI  24
THEDFORD       SUNNY     37  34  90 CALM      30.00F
$$

NEZ041-046>049-061>064-073>077-083>087-281500-
SOUTH CENTRAL NEBRASKA

CITY           SKY/WX    TMP DP  RH WIND       PRES   REMARKS
GRAND ISLAND   SUNNY     34  26  72 SE9       30.07R WCI  27
AURORA         SUNNY     35  28  78 SE13      30.06R WCI  26
HASTINGS       SUNNY     34  25  69 E12       30.05R WCI  25
HEBRON         SUNNY     36  27  68 E10       30.07S WCI  29
HOLDREGE       SUNNY     33  26  74 E7        30.03R WCI  27
KEARNEY *        N/A    N/A N/A N/A MISG        N/A
YORK           SUNNY     34  27  75 SE12      30.08R WCI  25
$$

NEZ011>018-030>034-042>045-281500-
NORTHEAST NEBRASKA

CITY           SKY/WX    TMP DP  RH WIND       PRES   REMARKS
NORFOLK        SUNNY     32  25  75 SE10      30.09R WCI  24
ALBION         SUNNY     32  25  76 SE9       30.07S WCI  24
BLAIR          SUNNY     36  27  71 SE14      30.13S WCI  27
COLUMBUS *     SUNNY     32  21  64 E12       30.12R WCI  23
FREMONT        SUNNY     35  29  78 SE10      30.14R WCI  27
TEKAMAH        SUNNY     36  27  69 SE15      30.16R WCI  27
WAYNE          SUNNY     32  28  84 SE15      30.13R WCI  21
$$

NEZ050>053-065>068-078-088>093-281500-
SOUTHEAST NEBRASKA

CITY           SKY/WX    TMP DP  RH WIND       PRES   REMARKS
LINCOLN        SUNNY     35  27  72 SE13      30.13R WCI  26
OMAHA EPPLEY   MOSUNNY   37  25  61 SE14      30.16R WCI  28
BEATRICE       SUNNY     36  28  72 SE10      30.10S WCI  28
FALLS CITY     SUNNY     37  28  70 E14       30.14R WCI  28
NEBRASKA CITY  SUNNY     34  28  77 SE14      30.14R WCI  25
PLATTSMOUTH    SUNNY     35  27  72 SE12G20   30.14S WCI  26
$$

NEZ044-045-051>053-067-281500-
OMAHA AREA

CITY           SKY/WX    TMP DP  RH WIND       PRES   REMARKS
OMAHA EPPLEY   MOSUNNY   37  25  61 SE14      30.16R WCI  28
BLAIR          SUNNY     36  27  71 SE14      30.13S WCI  27
FREMONT        SUNNY     35  29  78 SE10      30.14R WCI  27
MILLARD        SUNNY     36  28  71 SE9       30.15R WCI  29
OFFUTT AFB     SUNNY     36  27  69 SE12      30.15R WCI  28
PLATTSMOUTH    SUNNY     35  27  72 SE12G20   30.14S WCI  26
WAHOO          FAIR      34  28  79 SE14      30.13R WCI  24
$$



USA.gov is the U.S. government's official web portal to all federal, state and local government web resources and services.